Find KSM1-c

NORAD ID: 46906 Int'l Des: 2020-081 Owner: KLEOS Country: L operational
LEOCIRCULAR

实时位置

正在加载3D地球...

关于 KSM1-c

正在加载描述...

即将过境

Passes for default location (London). Set your location on the main map for personalized predictions.

高度历史

Loading altitude history...

两行轨道根数

1 46906U 20081B 26105.94468839 .00005783 00000-0 22527-3 0 9995
2 46906 36.8934 82.8913 0001564 347.2722 12.7988 15.25710509299655
Epoch: Apr 15, 2026 • Age: 9 hours

当前状态

高度 487.6 km
速度 7.62 km/s
星下点 -5.65°S, 107.64°E
发射日期 Nov 7, 2020
运行时间 5.4 years
类型 other

技术详情

分类 Payload
质量 10.00 kg
干质量 10.00 kg
总质量 10.00 kg
长度 0.30 m
直径 0.20 m
跨度 0.30 m
形状 Box
制造商 GOMSP
平台类型 Cubesat 6U
阶段状态 In Orbit
所有者/国家 KLEOS/L

Most Searched